This demonstration page uses our WeatherBlox Daily Observations layout. Learn more.

Left ArrowRight Arrow

34.74481, -87.66753

Hourly Observations for September 6, 2020

Temp ( °F °C ) Dew Point ( °F °C ) Humidity (%) Winds ( mph kmh ) Pressure ( in mb ) Visibility ( mi km ) Precip ( " mm )
12:53 am 00:53 Clear 68 20 64 17.8 87 87 Calm 30.22 1023 10 16 0.00 0.00
1:53 am 01:53 Clear with Mist and Fog 66 18.9 63 17.2 90 90 Calm 30.20 1023 5 8 0.00 0.00
2:49 am 02:49 Clear with Mist and Fog 66 19 63 17 88 88 Calm 30.20 1023 2 3 0.00 0.00
2:53 am 02:53 Clear with Mist and Fog 66 18.9 63 17.2 90 90 Calm 30.19 1022 3 5 0.00 0.00
3:01 am 03:01 Clear with Mist and Fog 65 18.3 62 16.7 90 90 Calm 30.20 1023 2 3 0.00 0.00
3:14 am 03:14 Clear with Mist and Fog 66 18.9 63 17.2 90 90 Calm 30.20 1023 1 1 0.00 0.00
3:28 am 03:28 Clear with Mist and Fog 65 18.3 62 16.7 90 90 Calm 30.19 1022 2 3 0.00 0.00
3:35 am 03:35 Clear 65 18.3 62 16.7 90 90 Calm 30.19 1022 8 13 0.00 0.00
3:53 am 03:53 Clear with Mist and Fog 64 17.8 61 16.1 90 90 SSE 3 6 30.18 1022 5 8 0.00 0.00
4:22 am 04:22 Mostly Clear with Mist and Fog 63 17.2 61 16.1 93 93 Calm 30.18 1022 2 3 0.00 0.00
4:49 am 04:49 Partly Cloudy with Mist and Fog 63 17 61 16 94 94 Calm 30.17 1022 3 5 0.00 0.00
4:53 am 04:53 Mostly Cloudy 63 17.2 60 15.6 90 90 Calm 30.16 1021 10 16 0.00 0.00
5:04 am 05:04 Mostly Cloudy with Mist and Fog 63 17.2 60 15.6 90 90 Calm 30.16 1021 2 2 0.00 0.00
5:14 am 05:14 Mostly Cloudy with Fog 63 17.2 60 15.6 90 90 Calm 30.16 1021 1 1 0.00 0.00
5:23 am 05:23 Mostly Cloudy with Fog 62 16.7 60 15.6 93 93 Calm 30.17 1022 0 0 0.00 0.00
5:33 am 05:33 Mostly Cloudy with Mist and Fog 63 17.2 60 15.6 90 90 Calm 30.17 1022 1 2 0.00 0.00
5:36 am 05:36 Partly Cloudy with Mist and Fog 63 17.2 60 15.6 90 90 Calm 30.17 1022 2 3 0.00 0.00
5:44 am 05:44 Mostly Clear with Mist and Fog 62 16.7 60 15.6 93 93 NE 3 6 30.18 1022 3 5 0.00 0.00
5:53 am 05:53 Clear 62 16.7 60 15.6 93 93 Calm 30.16 1021 8 13 0.00 0.00
6:08 am 06:08 Clear with Mist and Fog 62 16.7 60 15.6 93 93 Calm 30.17 1022 2 3 0.00 0.00
6:26 am 06:26 Clear 62 16.7 60 15.6 93 93 Calm 30.19 1022 9 14 0.00 0.00
6:53 am 06:53 Sunny 62 16.7 60 15.6 93 93 Calm 30.18 1022 10 16 0.00 0.00
7:53 am 07:53 Sunny 66 18.9 63 17.2 90 90 Calm 30.19 1022 10 16 0.00 0.00
8:53 am 08:53 Sunny 72 22.2 65 18.3 79 79 Calm 30.19 1022 10 16 0.00 0.00
9:53 am 09:53 Sunny 78 25.6 63 17.2 60 60 VRB 3 6 30.19 1022 10 16 0.00 0.00
10:53 am 10:53 Sunny 82 27.8 62 16.7 51 51 ENE 6 9 30.18 1022 10 16 0.00 0.00
11:53 am 11:53 Sunny 85 29.4 56 13.3 37 37 ENE 5 7 30.15 1021 10 16 0.00 0.00
12:53 pm 12:53 Sunny 86 30 59 15 40 40 VRB 6 9 30.14 1021 10 16 0.00 0.00
1:53 pm 13:53 Sunny 88 31.1 55 12.8 33 33 VRB 5 7 30.12 1020 10 16 0.00 0.00
2:53 pm 14:53 Sunny 89 31.7 52 11.1 28 28 E 8 13 30.11 1020 10 16 0.00 0.00
3:53 pm 15:53 Sunny 89 31.7 46 7.8 23 23 NNE 6 9 30.10 1019 10 16 0.00 0.00
4:53 pm 16:53 Sunny 88 31.1 50 10 27 27 Calm 30.09 1019 10 16 0.00 0.00
5:53 pm 17:53 Sunny 86 30 57 13.9 37 37 SSE 7 11 30.07 1018 10 16 0.00 0.00
6:53 pm 18:53 Sunny 82 27.8 61 16.1 49 49 Calm 30.06 1018 10 16 0.00 0.00
7:53 pm 19:53 Clear 74 23.3 62 16.7 67 67 Calm 30.06 1018 10 16 0.00 0.00
8:53 pm 20:53 Clear 72 22.2 63 17.2 73 73 Calm 30.06 1018 10 16 0.00 0.00
9:53 pm 21:53 Clear 68 20 64 17.8 87 87 Calm 30.06 1018 10 16 0.00 0.00
10:53 pm 22:53 Clear 67 19.4 63 17.2 87 87 Calm 30.05 1018 10 16 0.00 0.00
11:53 pm 23:53 Clear 67 19.4 63 17.2 87 87 Calm 30.05 1018 10 16 0.00 0.00

Powered by AerisWeather